{"data":{"norad_id":49279,"epoch":"2026-05-25T03:43:07.292064Z","epoch_age_seconds":61641,"freshness":"FRESH","line1":"1 49279U 21090A   26145.15494551  .00000032  00000+0  53152-4 0  9999","line2":"2 49279  87.8941 294.3025 0001698  90.7758 269.3566 13.14503714224559","mean_motion":13.14503714,"eccentricity":0.0001698,"inclination_deg":87.8941,"raan_deg":294.3025,"arg_perigee_deg":90.7758,"mean_anomaly_deg":269.3566,"bstar":5.3152e-5,"rev_number":22455,"period_min":109.54704689408,"perigee_km":1204.4990888742,"apogee_km":1207.0745894099,"semimajor_km":7583.923839142,"source":"CELESTRAK","updated_at":"2026-05-25T13:38:22.519004Z"}}